Погода в Кумаси

Гана     6°42′42″N   1°38′17″W
темп.,
°C
ветер,
м/с
пор.,
м/с
влажн.,
%
обл.,
%
осадки,
мм/ч
давл.,
гПа
погр.,
м
4 марта, чт
чт400:00+26ююз3885100 0.1 1010476
03:00+24ююз259176 0.0 1008460
06:00+25юз368387 0.0 1010564
09:00+27зюз3473100 0.0 1011699
12:00+33зюз334997 0.0 10101280
15:00+37ююз353350 0.0 10062653
18:00+32ююз575052 0.0 1006599
21:00+28ю387293 0.3 1009445
5 марта, пт
пт500:00+25ююз398697 1.8 1009506
03:00+24ююз279315 0.0 1008482
06:00+25юз478745 0.0 1009605
09:00+27юз3677100 0.1 1011802
12:00+31юз345797 0.1 10091098
15:00+34юз334543 0.0 10061664
18:00+32юз465223 0.0 1007717
21:00+26ю387966 1.9 1010418
6 марта, сб
сб600:00+25ююз398682 2.1 1011517
03:00+24ююз289066 0.0 1010421
06:00+23ююз269471 0.0 1010309
09:00+28юз3669100 0.0 1012797
12:00+35ююз334268 0.0 10111749
15:00+37ююв233112 0.0 10072709
18:00+31ююз685450 0.5 1008824
21:00+26ююз278395 2.0 1011468
7 марта, вс
вс700:00+25ююз498785 2.0 1012515
03:00+24юз2792100 0.0 1011486
06:00+23зюз2695100 0.0 1012364
09:00+27юз357287 0.0 1014695
12:00+34юз334449 0.0 10111583
15:00+37ююв223321 0.0 10072363
18:00+32юз475053 0.0 1008785
21:00+27ююз49757 0.8 1011452
8 марта, пн
пн800:00+25ююз38844 0.8 1011421
03:00+24юз389047 0.0 1009494
06:00+23юз389249 0.0 1010559
09:00+26юз357687 0.0 1012700
12:00+32юз345387 0.0 10101139
15:00+35ююз223918 0.0 10062111
18:00+30ююз586136 0.8 1007710
21:00+26ю398367 5.1 1009442